When you browse on this site, cookies collect data to enhance your experience and personalize the content and advertising you see.
Visit our Privacy Policy to learn more. By continuing to use the site, you agree to this use of cookies and data.

Hourly Weather Stafford

Today, 27 September, Sunday

Time Temperature Precipitation Wind Pressure Humidity
00:00 +6°C° 0 mm 4 mps 753 mmHg 77%
01:00 +6°C° 0 mm 4 mps 753 mmHg 79%
02:00 +6°C° 0 mm 5 mps 753 mmHg 81%
03:00 +5°C° 0 mm 5 mps 753 mmHg 83%
04:00 +5°C° 0 mm 5 mps 753 mmHg 83%
05:00 +5°C° 0 mm 5 mps 753 mmHg 84%
06:00 +5°C° 0 mm 5 mps 753 mmHg 84%
07:00 +6°C° 0 mm 5 mps 753 mmHg 80%
08:00 +7°C° 0 mm 5 mps 753 mmHg 77%
09:00 +8°C° 0 mm 5 mps 753 mmHg 73%
10:00 +9°C° 0 mm 5 mps 753 mmHg 70%
11:00 +10°C° 0 mm 5 mps 753 mmHg 67%
12:00 +12°C° 0 mm 5 mps 753 mmHg 64%
13:00 +12°C° 0 mm 5 mps 753 mmHg 63%
14:00 +13°C° 0 mm 5 mps 752 mmHg 62%
15:00 +13°C° 0 mm 5 mps 752 mmHg 60%
16:00 +12°C° 0 mm 4 mps 752 mmHg 65%
17:00 +10°C° 0 mm 3 mps 752 mmHg 70%
18:00 +8°C° 0 mm 3 mps 752 mmHg 75%
19:00 +8°C° 0 mm 2 mps 753 mmHg 76%
20:00 +7°C° 0 mm 2 mps 753 mmHg 78%
21:00 +6°C° 0 mm 2 mps 753 mmHg 79%
22:00 +6°C° 0 mm 2 mps 753 mmHg 81%
23:00 +6°C° 0 mm 2 mps 753 mmHg 83%

Tomorrow, 28 September, Monday

Time Temperature Precipitation Wind Pressure Humidity
00:00 +5°C° 0 mm 2 mps 753 mmHg 85%
01:00 +5°C° 0 mm 2 mps 752 mmHg 86%
02:00 +5°C° 0 mm 2 mps 752 mmHg 86%
03:00 +5°C° 0 mm 2 mps 752 mmHg 87%
04:00 +5°C° 0 mm 2 mps 752 mmHg 88%
05:00 +5°C° 0 mm 2 mps 751 mmHg 89%
06:00 +5°C° 0 mm 2 mps 751 mmHg 90%
07:00 +6°C° 0 mm 2 mps 751 mmHg 83%
08:00 +9°C° 0 mm 1 mps 751 mmHg 76%
09:00 +11°C° 0 mm 1 mps 751 mmHg 69%
10:00 +12°C° 0 mm 2 mps 751 mmHg 66%
11:00 +14°C° 0 mm 2 mps 751 mmHg 63%
12:00 +16°C° 0 mm 2 mps 750 mmHg 59%
13:00 +17°C° 0 mm 2 mps 750 mmHg 63%
14:00 +17°C° 0 mm 2 mps 750 mmHg 67%
15:00 +18°C° 0 mm 2 mps 750 mmHg 70%
16:00 +17°C° 0 mm 2 mps 750 mmHg 76%
17:00 +16°C° 0 mm 2 mps 750 mmHg 82%
18:00 +15°C° 0 mm 2 mps 750 mmHg 88%
19:00 +15°C° 0 mm 2 mps 751 mmHg 88%
20:00 +14°C° 0 mm 2 mps 751 mmHg 89%
21:00 +13°C° 0 mm 3 mps 751 mmHg 90%
22:00 +12°C° 0 mm 3 mps 752 mmHg 91%
23:00 +12°C° 0 mm 3 mps 752 mmHg 92%

Day after tomorrow, 29 September, Tuesday

Time Temperature Precipitation Wind Pressure Humidity
00:00 +11°C° 0 mm 3 mps 752 mmHg 93%
01:00 +11°C° 0 mm 3 mps 752 mmHg 93%
02:00 +10°C° 0 mm 2 mps 752 mmHg 94%
03:00 +10°C° 0 mm 2 mps 752 mmHg 94%
04:00 +9°C° 0 mm 2 mps 752 mmHg 94%
05:00 +9°C° 0 mm 2 mps 752 mmHg 94%
06:00 +8°C° 0 mm 2 mps 752 mmHg 95%
07:00 +10°C° 0 mm 3 mps 753 mmHg 89%
08:00 +11°C° 0 mm 3 mps 753 mmHg 84%
09:00 +12°C° 0 mm 3 mps 753 mmHg 79%
10:00 +13°C° 0 mm 3 mps 753 mmHg 73%
11:00 +14°C° 0 mm 3 mps 753 mmHg 67%
12:00 +16°C° 0 mm 3 mps 753 mmHg 61%
13:00 +16°C° 0 mm 2 mps 753 mmHg 60%
14:00 +16°C° 0 mm 2 mps 752 mmHg 58%
15:00 +16°C° 0 mm 2 mps 752 mmHg 56%
16:00 +15°C° 0 mm 1 mps 752 mmHg 60%
17:00 +14°C° 0 mm 1 mps 752 mmHg 64%
18:00 +13°C° 0 mm 1 mps 752 mmHg 68%
19:00 +13°C° 0 mm 1 mps 752 mmHg 69%
20:00 +12°C° 0 mm 1 mps 752 mmHg 71%
21:00 +12°C° 0 mm 2 mps 752 mmHg 73%
22:00 +11°C° 0 mm 1 mps 751 mmHg 76%
23:00 +11°C° 0 mm 1 mps 751 mmHg 80%

30 September, Wednesday

Time Temperature Precipitation Wind Pressure Humidity
00:00 +10°C° 0 mm 1 mps 750 mmHg 84%
01:00 +9°C° 0 mm 2 mps 750 mmHg 84%
02:00 +8°C° 0 mm 2 mps 750 mmHg 85%
03:00 +8°C° 0 mm 2 mps 749 mmHg 85%
04:00 +8°C° 0 mm 3 mps 749 mmHg 85%
05:00 +9°C° 0 mm 3 mps 748 mmHg 85%
06:00 +9°C° 0 mm 3 mps 748 mmHg 85%
07:00 +8°C° 0 mm 4 mps 747 mmHg 82%
08:00 +10°C° 0 mm 4 mps 747 mmHg 79%
09:00 +11°C° 0 mm 4 mps 746 mmHg 76%
10:00 +11°C° 0.2 mm 4 mps 746 mmHg 79%
11:00 +12°C° 0.2 mm 4 mps 745 mmHg 82%
12:00 +12°C° 0.2 mm 5 mps 744 mmHg 85%
13:00 +12°C° 1.2 mm 5 mps 743 mmHg 87%
14:00 +12°C° 1.2 mm 5 mps 742 mmHg 90%
15:00 +11°C° 1.2 mm 6 mps 741 mmHg 92%
16:00 +12°C° 0.3 mm 5 mps 741 mmHg 92%
17:00 +12°C° 0.3 mm 4 mps 740 mmHg 92%
18:00 +11°C° 0.3 mm 4 mps 740 mmHg 92%
19:00 +11°C° 0.2 mm 3 mps 740 mmHg 92%
20:00 +11°C° 0.2 mm 3 mps 740 mmHg 92%
21:00 +10°C° 0.2 mm 3 mps 740 mmHg 92%
22:00 +10°C° 0 mm 3 mps 739 mmHg 92%
23:00 +9°C° 0 mm 3 mps 739 mmHg 92%

1 October, Thursday

Time Temperature Precipitation Wind Pressure Humidity
00:00 +8°C° 0 mm 2 mps 739 mmHg 92%
01:00 +8°C° 0 mm 2 mps 739 mmHg 93%
02:00 +7°C° 0 mm 2 mps 739 mmHg 94%
03:00 +7°C° 0 mm 2 mps 739 mmHg 94%
04:00 +7°C° 0 mm 3 mps 738 mmHg 94%
05:00 +7°C° 0 mm 3 mps 738 mmHg 94%
06:00 +5°C° 0 mm 3 mps 738 mmHg 94%
07:00 +6°C° 0 mm 4 mps 738 mmHg 89%
08:00 +7°C° 0 mm 5 mps 738 mmHg 84%
09:00 +8°C° 0 mm 6 mps 738 mmHg 79%
10:00 +9°C° 0.1 mm 6 mps 738 mmHg 74%
11:00 +9°C° 0.1 mm 6 mps 738 mmHg 70%
12:00 +10°C° 0.1 mm 6 mps 738 mmHg 65%
13:00 +10°C° 0.1 mm 6 mps 738 mmHg 64%
14:00 +10°C° 0.1 mm 6 mps 737 mmHg 63%
15:00 +10°C° 0.1 mm 5 mps 737 mmHg 61%
16:00 +10°C° 0 mm 4 mps 737 mmHg 67%
17:00 +7°C° 0 mm 4 mps 737 mmHg 72%
18:00 +7°C° 0 mm 3 mps 737 mmHg 77%
19:00 +6°C° 0 mm 2 mps 737 mmHg 79%
20:00 +6°C° 0 mm 2 mps 736 mmHg 81%
21:00 +5°C° 0 mm 2 mps 736 mmHg 83%
22:00 +6°C° 0 mm 1 mps 736 mmHg 83%
23:00 +5°C° 0 mm 1 mps 735 mmHg 83%

2 October, Friday

Time Temperature Precipitation Wind Pressure Humidity
00:00 +5°C° 0 mm 1 mps 734 mmHg 84%
01:00 +5°C° 0 mm 1 mps 734 mmHg 84%
02:00 +5°C° 0 mm 1 mps 734 mmHg 84%
03:00 +4°C° 0 mm 0 mps 733 mmHg 83%
04:00 +4°C° 0 mm 0 mps 733 mmHg 83%
05:00 +3°C° 0 mm 0 mps 733 mmHg 83%
06:00 +3°C° 0 mm 0 mps 732 mmHg 83%
07:00 +5°C° 0 mm 0 mps 732 mmHg 79%
08:00 +6°C° 0 mm 0 mps 732 mmHg 74%
09:00 +7°C° 0 mm 0 mps 732 mmHg 70%
10:00 +8°C° 0 mm 0 mps 732 mmHg 67%
11:00 +10°C° 0 mm 1 mps 732 mmHg 64%
12:00 +11°C° 0 mm 1 mps 732 mmHg 61%
13:00 +11°C° 0.1 mm 1 mps 732 mmHg 61%
14:00 +10°C° 0.1 mm 2 mps 732 mmHg 61%
15:00 +10°C° 0.1 mm 2 mps 732 mmHg 61%
16:00 +9°C° 0 mm 2 mps 732 mmHg 67%
17:00 +8°C° 0 mm 2 mps 732 mmHg 74%
18:00 +7°C° 0 mm 2 mps 732 mmHg 80%
19:00 +6°C° 0 mm 2 mps 733 mmHg 82%
20:00 +6°C° 0 mm 2 mps 733 mmHg 85%
21:00 +5°C° 0 mm 2 mps 733 mmHg 88%
22:00 +4°C° 0 mm 3 mps 733 mmHg 89%
23:00 +4°C° 0 mm 3 mps 733 mmHg 90%
Show more